Content
SEND FEEDBACK

Daily
Averages
Monthly
Summary
United States of America

WAHWEAP, ARIZONA


Home > North America > United States > Arizona
Elevation: 3703 feet     Latitude: 36 59N     Longitude: 111 29W

WEATHER
 
SELECT A DAY
Number of Records: 194,702;   Date Range: 1/1/95 - 7/26/14
 
SHARE

PRINT THIS DATA

[ ← Previous Day ]
WEATHER ALMANAC - JUNE 7, 2014
[ Next Day → ]
[ °C ]   °F
Weather ElementAverageHighLow
Temperature83.9 °F97 °F (2:53 pm)69.8 °F (4:53 am)
Dewpoint22.2 °F27 °F (8:53 pm)15.1 °F (3:53 pm)
Humidity11 %18 % (2:53 am)5 % (2:53 pm)
Barometer29.65 in29.91 in (7:53 am)29.55 in (3:53 pm)
Wind Speed5.3 mph17.3 mph (4:53 pm)
Wind Gust28.8 mph (4:53 pm)
Weather ElementAverage
Visibility10 mi
Wind DirectionE (95 °)

Weather ElementTotal
Precipitation---
Cooling Degree Days18.4 (Base 65)
Growing Degree Days33.4 (Base 50)
Averaged from 24 records on June 7, 2014
WEATHER CONDITIONS BREAKOUT
WIND DIRECTION BREAKOUT
WEATHER BY HOUR - JUNE 7, 2014
[ °C ]   °F
Local TimeTemperatureDewpointHumidityBarometerVisibilityWind DirectionWind SpeedGust SpeedPrecipitationEventsConditions
1:53 AM72.0 °F23.0 °F16 %29.63 in10.0 miCalmClear
2:53 AM70.0 °F24.1 °F18 %29.64 in10.0 miCalmClear
3:53 AM71.1 °F21.9 °F16 %29.65 in10.0 miCalmClear
4:53 AM69.8 °F21.2 °F16 %29.86 in10.0 miCalmClear
5:53 AM70.0 °F23.0 °F17 %29.66 in10.0 miSSW (200°)3.5 mphClear
6:53 AM77.0 °F21.9 °F13 %29.67 in10.0 miNNE (30°)3.5 mphClear
7:53 AM78.8 °F19.4 °F11 %29.91 in10.0 miCalmClear
8:53 AM81.0 °F24.1 °F12 %29.70 in10.0 miNorth (10°)4.6 mphClear
9:53 AM84.9 °F23.0 °F10 %29.68 in10.0 miNorth (350°)5.8 mphClear
10:53 AM89.1 °F23.0 °F9 %29.66 in10.0 miNE (50°)3.5 mphClear
11:53 AM91.0 °F21.9 °F8 %29.65 in10.0 miNNE (20°)9.2 mphClear
12:53 PM93.9 °F19.9 °F7 %29.61 in10.0 miNNE (20°)9.2 mphClear
1:53 PM93.9 °F19.0 °F7 %29.60 in10.0 miVariable3.5 mphClear
2:53 PM97.0 °F17.1 °F5 %29.57 in10.0 miNorth (10°)8.1 mphClear
3:53 PM96.1 °F15.1 °F5 %29.55 in10.0 miNorth (10°)4.6 mphClear
4:53 PM91.9 °F21.9 °F8 %29.57 in10.0 miNW (310°)17.3 mph28.8 mphClear
5:51 PM91.4 °F21.2 °F8 %29.80 in10.0 miSouth (190°)15.0 mph26.5 mphScattered Clouds
5:53 PM91.0 °F21.9 °F8 %29.59 in10.0 miSSW (200°)9.2 mph21.9 mphScattered Clouds
6:53 PM91.0 °F19.9 °F7 %29.58 in10.0 miNNE (20°)6.9 mphClear
7:53 PM87.1 °F25.0 °F10 %29.59 in10.0 miNE (40°)6.9 mphClear
8:53 PM86.0 °F27.0 °F12 %29.60 in10.0 miNorth (360°)5.8 mphClear
9:53 PM81.0 °F27.0 °F14 %29.62 in10.0 miCalmClear
10:53 PM79.0 °F27.0 °F15 %29.62 in10.0 miSW (230°)5.8 mphClear
11:53 PM79.0 °F24.1 °F13 %29.62 in10.0 miSW (230°)4.6 mphClear
Hourly data recorded from KPGA, located miles away from Wahweap, Arizona







STORIES FROM OUR PARTNERS